Regional Weather Roundup
Issued by NWS

Home | Current Version | Previous Version | Text Only | Print | Product List | Glossary On
Versions: 1 2 3 4 5 6 7 8 9 10 11 12 13 14 15 16 17 18 19 20 21 22 23 24 25 26 27 28 29 30 31 32 33 34 35 36 37 38 39 40 41 42 43 44 45 46 47 48 49 50
000
ASUS42 KTBW 231216
RWRFL
FLORIDA REGIONAL WEATHER ROUNDUP
NATIONAL WEATHER SERVICE TAMPA BAY RUSKIN FL
800 AM EDT SAT MAY 23 2015

NOTE: "FAIR" INDICATES FEW OR NO CLOUDS BELOW 12,000 FEET WITH NO
SIGNIFICANT WEATHER AND/OR OBSTRUCTIONS TO VISIBILITY.


FLZ001>010-012>015-112-114-115-231300-
PANHANDLE FLORIDA

CITY           SKY/WX    TMP DP  RH WIND       PRES   REMARKS
PENSACOLA      SUNNY     69  57  65 NE7       30.22R
PENSACOLA NAS  SUNNY     71  61  70 N6        30.21R
MILTON NAS     SUNNY     66  57  72 VRB3      30.23
CRESTVIEW      SUNNY     65  57  75 E5        30.25R
DUKE FIELD     FAIR      64  57  76 NE3       30.23R
VALPARAISO     MOSUNNY   70  55  57 NE5       30.22R
MARY ESTHER    SUNNY     67  55  64 NE5       30.22R
TRI COUNTY     FAIR      65  61  87 NE3       30.26R
PANAMA CITY    FAIR      67  61  81 NE9       30.22R
TYNDALL AFB    SUNNY     68  63  84 E9        30.22R
APALACHICOLA   MOSUNNY   72  66  81 NE7       30.22R

STATION/POSITION SKY/WX   TEMP    WIND        PRES    WAVE   SWELL
                          AIR SEA DIR/SP/G            HT/PER HT/PER
                          (F)     (DEG/KT/KT) (MB)    (FT/S) (FT/S)
30.1N   87.6W              79 80   70/ 12/ 14 1022.0R   1/ 4
29.2N   88.2W              79 80   90/ 12/ 14 1022.8R   2/ 3
28.8N   86.0W              80 80   90/ 10/ 12 1022.2R   1/ 3
PANAMA CITY BEAC           70 77   70/  5/ 11 1022.5R
CAPE SAN BLAS    NOT AVBL
TOWER C                    76      80/ 18/ 19 1022.8R
28.5N   84.5W              80 80   80/ 16/ 19 1021.5R   2/ 4

$$
FLZ011-016>038-118-127-128-134-139-239-231300-
NORTH FLORIDA

CITY           SKY/WX    TMP DP  RH WIND       PRES   REMARKS
MARIANNA       LGT RAIN  66  65  96 NE8       30.26R
TALLAHASSEE    SUNNY     72  64  76 E9        30.26R
PERRY          SUNNY     69  66  90 NE6       30.26R
CROSS CITY       N/A     72  67  84 NE6       30.24R
LAKE CITY      FAIR      68  63  83 NE5       30.27R
GAINESVILLE    SUNNY     70  66  87 NE9       30.25R
MAYPORT NAS    SUNNY     76  66  71 NE16      30.26R
JACKSONVILLE   MOSUNNY   70  65  84 NE5       30.26R
JAX NAS        MOSUNNY   77  66  68 NE12      30.26R
JAX CRAIG      SUNNY     75  65  70 NE10      30.26R
JAX CECIL      SUNNY     68  66  94 NE6       30.26R
FERNANDINA BEA FAIR      79  66  65 NE10      30.26R
ST AUGUSTINE   SUNNY     76  70  82 NE16      30.26R

STATION/POSITION SKY/WX   TEMP    WIND        PRES    WAVE   SWELL
                          AIR SEA DIR/SP/G            HT/PER HT/PER
                          (F)     (DEG/KT/KT) (MB)    (FT/S) (FT/S)
SHELL POINT                71      60/  5/ 13   N/A
KEATON BEACH               70      60/ 10/ 14 1024.1R
CEDAR KEY                  73      70/ 15/ 17 1023.7R
FERNANDINA                 74 79   60/  7/ 13 1023.8R
30.7N   81.3W                 77                N/A     4/ 5
MAYPORT                    74 77   60/ 15/ 19 1024.2R
31.4N   80.9W              73 76   60/ 17/ 21 1025.6R   4/ 5
ST AUGUSTINE               75 75   30/ 15/ 16 1024.8R

$$
FLZ040-043>046-052-053-057-058-063-144-231300-
INTERIOR CENTRAL FLORIDA

CITY           SKY/WX    TMP DP  RH WIND       PRES   REMARKS
OCALA          MOSUNNY   72  66  83 NE5       30.24R
THE VILLAGES     N/A     73  73 100 N7        30.13R
LEESBURG       SUNNY     76  71  85 NE9       30.23R
SANFORD        MOSUNNY   76  71  85 N7        30.21R
ORLANDO EXEC   SUNNY     77  73  87 NE6       30.21R
ORLANDO INTL   MOSUNNY   77  74  90 NE10      30.21R
KISSIMMEE      SUNNY     77  73  88 NE6       30.22R
WINTER HAVEN   MOSUNNY   76  73  91 NE7       30.22R
LAKELAND       SUNNY     75  70  83 NE12      30.20R
BARTOW         SUNNY     73  73 100 NE9       30.21R
OKEECHOBEE     SUNNY     73  72  94 N6        30.20R

$$
FLZ041-047-054-059-064-141-147-231300-
EAST CENTRAL FLORIDA

CITY           SKY/WX    TMP DP  RH WIND       PRES   REMARKS
ORMOND BEACH   MOSUNNY   77  72  83 E8        30.22R
DAYTONA BEACH  MOSUNNY   79  71  76 NE12      30.23R
DELAND           N/A     73  72  94 NE6       30.23R
NEW SMYRNA BEA MOSUNNY   77  73  88 NE9       30.22R
JFK SPACE CTR  SUNNY     75  73  93 NW1       30.20R
TITUSVILLE     SUNNY     73  73 100 N5        30.21R
CAPE CANAVERAL SUNNY     77  72  84 NE3       30.19R
PATRICK AFB    SUNNY     80  72  75 NE12      30.19R
MELBOURNE      SUNNY     79  72  79 NE9       30.19R
VERO BEACH     SUNNY     80  74  81 N6        30.19R
FT PIERCE      SUNNY     80  74  81 CALM      30.19R
STUART         PTSUNNY   75  72  88 CALM      30.19R

STATION/POSITION SKY/WX   TEMP    WIND        PRES    WAVE   SWELL
                          AIR SEA DIR/SP/G            HT/PER HT/PER
                          (F)     (DEG/KT/KT) (MB)    (FT/S) (FT/S)
28.5N   80.2W              80 79   40/  6/  8 1022.6R
28.9N   78.5W              79 81   50/ 10/ 12 1022.5R
TRIDENT PIER               72 82   10/  3/  4 1022.7R
28.4N   80.5W                 81                N/A     1/ 6
27.5N   80.2W                 81                N/A     2/ 8

$$
FLZ050-056-061-142-242-148-248-149-249-151-251-155-255-
160-260-231300-
WEST CENTRAL FLORIDA

CITY           SKY/WX    TMP DP  RH WIND       PRES   REMARKS
CRYSTAL RIVER  CLOUDY    72  70  94 NE8       30.22R
INVERNESS      CLOUDY    72  72 100 NE6       30.22R
BROOKSVILLE    MOSUNNY   75  71  87 NE10      30.21R
CLEARWATER     SUNNY     76  70  82 E12       30.19R
TAMPA INTL     SUNNY     76  68  76 NE9       30.20R
TAMPA EXEC     SUNNY     77  70  78 E3        30.20R
PLANT CITY     SUNNY     75  72  88 NE8       30.22R
MACDILL AFB    SUNNY     76  72  85 E15       30.19R
PETER O KNIGHT SUNNY     77  72  83 NE13      30.20R
ST PETERSBURG  SUNNY     78  71  79 E16       30.18R
SARASOTA       SUNNY     75  71  87 E8        30.17R
VENICE         FAIR      75  72  88 E13       30.18R

STATION/POSITION SKY/WX   TEMP    WIND        PRES    WAVE   SWELL
                          AIR SEA DIR/SP/G            HT/PER HT/PER
                          (F)     (DEG/KT/KT) (MB)    (FT/S) (FT/S)
CEDAR KEY                  73      70/ 15/ 17 1023.7R
28.5N   84.5W              80 80   80/ 16/ 19 1021.5R   2/ 4
27.3N   84.2W                 81                N/A     2/ 4
CLEARWATER BEACH           76 85   70/  9/ 13 1021.8R
MIDDLE TAMPA BAY           75     100/ 15/ 17 1021.5R
VENICE                     75 84   70/ 10/ 14 1021.5R

$$
FLZ066-069-070-075>078-162-262-165-265-231300-
SOUTHWEST FLORIDA AND KEYS

CITY           SKY/WX    TMP DP  RH WIND       PRES   REMARKS
PUNTA GORDA    SUNNY     73  72  96 E9        30.19R
FT MYERS       SUNNY     74  72  93 E6        30.16R
SOUTHWEST INTL SUNNY     74  71  91 NE7       30.17R
NAPLES         SUNNY     75  72  90 E9        30.16R
MARCO ISLAND   SUNNY     73  66  78 NE7       30.16R
IMMOKALEE      SUNNY    N/A N/A N/A CALM      30.18R
MARATHON       MOSUNNY   83  74  74 E6        30.14R
KEY WEST NAS   MOSUNNY   82  72  71 E9        30.14R
KEY WEST INTL  SUNNY     82  73  74 E8        30.14R

STATION/POSITION SKY/WX   TEMP    WIND        PRES    WAVE   SWELL
                          AIR SEA DIR/SP/G            HT/PER HT/PER
                          (F)     (DEG/KT/KT) (MB)    (FT/S) (FT/S)
VENICE                     75 84   70/ 10/ 14 1021.5R
NAPLES                     73 84   70/  5/  9 1020.8R
26.0N   85.6W              81 82   80/ 10/ 12 1021.0R   1/ 3
DRY TORTUGAS               79     140/ 15/ 17 1020.0R
NW FL BAY                  79      60/ 10/ 11 1020.2
SAND KEY                   81     110/  8/ 10 1020.6R
SOMBRERO KEY               82     100/  9/  9 1021.2R
LONG KEY                   82 86  110/ 10/ 12 1021.4R
MOLASSES REEF              81 82   90/  9/ 10 1020.8R

$$
FLZ067-068-071>074-168-172>174-231300-
SOUTHEAST FLORIDA

CITY           SKY/WX    TMP DP  RH WIND       PRES   REMARKS
W PALM BEACH   MOSUNNY   79  74  84 CALM      30.18R
FT LAUDER-EXEC SUNNY     79  74  84 NE5       30.17R
FT LAUDERDALE  MOSUNNY   79  75  87 N5        30.17R
POMPANO BEACH  MOSUNNY   80  74  81 N5        30.17R SMOKE
PEMBROKE PINES SUNNY     78  73  84 NE5       30.18R
OPA LOCKA      SUNNY     78  73  84 N8        30.17R
MIAMI          MOSUNNY   79  72  79 N6        30.17R
WEST KENDALL   SUNNY     79  73  82 N5        30.16R
HOMESTEAD      MOSUNNY   78  72  82 N3        30.15R

STATION/POSITION SKY/WX   TEMP    WIND        PRES    WAVE   SWELL
                          AIR SEA DIR/SP/G            HT/PER HT/PER
                          (F)     (DEG/KT/KT) (MB)    (FT/S) (FT/S)
PORT EVERGLADES            79      40/  5/  9 1021.7R
VIRGINIA KEY               81 85   90/  5/  6 1020.2R
LAKE WORTH                 78 81  360/  3/  5 1020.9R



USA.gov is the U.S. government's official web portal to all federal, state and local government web resources and services.